Weather History for KAVK - September, 2013

Change the Weather History Date:

Thursday, September 19, 2013

  Actual Average Record
Temperature  
Mean Temperature 78 °F -  
Max Temperature 89 °F 85 °F 103 °F (1954)
Min Temperature 66 °F 59 °F 37 °F (1991)
Cooling Degree Days 12    
Growing Degree Days 28 (Base 50)    
Moisture  
Dew Point 63 °F    
Average Humidity 68    
Maximum Humidity 100    
Minimum Humidity 43    
Precipitation  
Precipitation 0.23 in - - ()
Sea Level Pressure  
Sea Level Pressure 29.90 in    
Wind  
Wind Speed 14 mph (SSW)    
Max Wind Speed 31 mph    
Max Gust Speed 39 mph    
Visibility 9 miles    
Events Rain , Thunderstorm    
Averages and records for this station are not official NWS values.
T = Trace of Precipitation, MM = Missing Value Source: NWS Daily Summary

Daily Weather History Graph

Daily Weather History Graph

Search for Another Location

Airport or City:

Trip Planner

Search our weather history database for the weather conditions in past years. The results will help you decide how hot, cold, wet, or windy it might be!

Date:

Astronomy

Sep. 19, 2013 Rise Set
Actual Time 7:20 AM CDT 7:35 PM CDT
Civil Twilight 6:54 AM CDT 8:01 PM CDT
Nautical Twilight 6:24 AM CDT 8:31 PM CDT
Astronomical Twilight 5:53 AM CDT 9:02 PM CDT
Moon 7:37 PM CDT (9/19) 7:29 AM CDT (9/19)
Length of Visible Light 13h 07m
Length of Day
12h 15m
Full, 100% of the Moon is Illuminated
Sep 19
Full
Sep 26
Last Quarter
Oct 4
New
Oct 11
First Quarter
Oct 18
Full

Hourly Weather History & Observations

Time (CDT) Temp. Heat Index Dew Point Humidity Pressure Visibility Wind Dir Wind Speed Gust Speed Precip Events Conditions
12:15 AM 77.0 °F - 60.8 °F 57% 29.86 in 10.0 mi South 13.8 mph - N/A   Clear
12:35 AM 75.2 °F - 59.0 °F 57% 29.86 in 10.0 mi South 11.5 mph - N/A   Clear
12:55 AM 73.4 °F - 60.8 °F 65% 29.86 in 10.0 mi South 11.5 mph - N/A   Clear
1:15 AM 73.4 °F - 59.0 °F 61% 29.87 in 10.0 mi South 12.7 mph - N/A   Clear
1:35 AM 75.2 °F - 59.0 °F 57% 29.87 in 9.0 mi South 13.8 mph - N/A   Clear
1:55 AM 75.2 °F - 59.0 °F 57% 29.87 in 7.0 mi South 15.0 mph - N/A   Partly Cloudy
2:15 AM 75.2 °F - 59.0 °F 57% 29.87 in 10.0 mi South 15.0 mph - N/A   Clear
2:35 AM 75.2 °F - 59.0 °F 57% 29.87 in 10.0 mi South 13.8 mph - N/A   Clear
2:55 AM 75.2 °F - 59.0 °F 57% 29.87 in 10.0 mi South 13.8 mph - N/A   Clear
3:15 AM 73.4 °F - 60.8 °F 65% 29.87 in 10.0 mi South 12.7 mph - N/A   Clear
3:35 AM 73.4 °F - 60.8 °F 65% 29.86 in 10.0 mi South 11.5 mph - N/A   Clear
3:55 AM 73.4 °F - 60.8 °F 65% 29.86 in 10.0 mi South 11.5 mph - N/A   Clear
4:15 AM 73.4 °F - 60.8 °F 65% 29.86 in 10.0 mi South 10.4 mph - N/A   Clear
4:35 AM 73.4 °F - 60.8 °F 65% 29.86 in 10.0 mi South 8.1 mph - N/A   Clear
4:55 AM 71.6 °F - 60.8 °F 69% 29.87 in 10.0 mi SSW 6.9 mph - N/A   Clear
5:15 AM 71.6 °F - 60.8 °F 69% 29.87 in 10.0 mi South 9.2 mph - N/A   Clear
5:35 AM 71.6 °F - 60.8 °F 69% 29.87 in 10.0 mi SSW 8.1 mph - N/A   Clear
5:55 AM 71.6 °F - 60.8 °F 69% 29.87 in 10.0 mi South 10.4 mph - N/A   Clear
6:15 AM 71.6 °F - 60.8 °F 69% 29.87 in 10.0 mi SSW 9.2 mph - N/A   Clear
6:35 AM 71.6 °F - 60.8 °F 69% 29.87 in 10.0 mi SSW 9.2 mph - N/A   Scattered Clouds
6:55 AM 71.6 °F - 60.8 °F 69% 29.87 in 10.0 mi SSW 9.2 mph - N/A   Partly Cloudy
7:15 AM 71.6 °F - 60.8 °F 69% 29.88 in 10.0 mi SSW 10.4 mph - N/A   Clear
7:35 AM 73.4 °F - 60.8 °F 65% 29.89 in 10.0 mi SSW 11.5 mph - N/A   Clear
7:55 AM 73.4 °F - 60.8 °F 65% 29.89 in 10.0 mi South 12.7 mph - N/A   Clear
8:15 AM 73.4 °F - 62.6 °F 69% 29.89 in 10.0 mi South 12.7 mph - N/A   Scattered Clouds
8:35 AM 77.0 °F - 62.6 °F 61% 29.89 in 10.0 mi SSW 17.3 mph - N/A   Mostly Cloudy
8:55 AM 77.0 °F - 62.6 °F 61% 29.89 in 10.0 mi SSW 15.0 mph - N/A   Scattered Clouds
9:15 AM 80.6 °F 81.8 °F 62.6 °F 54% 29.90 in 10.0 mi SSW 17.3 mph 24.2 mph N/A   Scattered Clouds
9:35 AM 80.6 °F 81.8 °F 62.6 °F 54% 29.90 in 10.0 mi SW 20.7 mph - N/A   Mostly Cloudy
9:55 AM 80.6 °F 82.3 °F 64.4 °F 58% 29.92 in 10.0 mi SW 20.7 mph 25.3 mph N/A   Mostly Cloudy
10:15 AM 80.6 °F 82.3 °F 64.4 °F 58% 29.93 in 10.0 mi WSW 16.1 mph 21.9 mph N/A   Mostly Cloudy
10:35 AM 80.6 °F 82.3 °F 64.4 °F 58% 29.93 in 10.0 mi SW 17.3 mph - N/A   Mostly Cloudy
10:55 AM 80.6 °F 82.3 °F 64.4 °F 58% 29.92 in 10.0 mi SW 18.4 mph 25.3 mph N/A   Mostly Cloudy
11:15 AM 84.2 °F 86.6 °F 66.2 °F 55% 29.92 in 10.0 mi SW 19.6 mph 26.5 mph N/A   Partly Cloudy
11:35 AM 86.0 °F 87.3 °F 64.4 °F 48% 29.92 in 10.0 mi SW 20.7 mph 26.5 mph N/A   Partly Cloudy
11:55 AM 84.2 °F 85.6 °F 64.4 °F 51% 29.92 in 10.0 mi SSW 20.7 mph - N/A   Clear
12:15 PM 86.0 °F 88.2 °F 66.2 °F 51% 29.91 in 10.0 mi SSW 21.9 mph 25.3 mph N/A   Clear
12:35 PM 87.8 °F 90.4 °F 66.2 °F 49% 29.90 in 10.0 mi SSW 19.6 mph 27.6 mph N/A   Partly Cloudy
12:55 PM 87.8 °F 90.4 °F 66.2 °F 49% 29.89 in 10.0 mi SSW 19.6 mph 27.6 mph N/A   Clear
1:15 PM 89.6 °F 92.2 °F 66.2 °F 46% 29.89 in 10.0 mi SW 24.2 mph 31.1 mph N/A   Clear
1:35 PM 89.6 °F 92.2 °F 66.2 °F 46% 29.88 in 10.0 mi SSW 24.2 mph 31.1 mph N/A   Scattered Clouds
1:55 PM 89.6 °F 91.1 °F 64.4 °F 43% 29.87 in 10.0 mi SW 20.7 mph 26.5 mph N/A   Partly Cloudy
2:15 PM 89.6 °F 91.1 °F 64.4 °F 43% 29.86 in 10.0 mi South 24.2 mph 28.8 mph N/A   Clear
2:35 PM 89.6 °F 91.1 °F 64.4 °F 43% 29.86 in 10.0 mi SSW 21.9 mph 29.9 mph N/A   Clear
2:55 PM 89.6 °F 91.1 °F 64.4 °F 43% 29.86 in 10.0 mi SW 23.0 mph 35.7 mph N/A   Clear
3:15 PM 89.6 °F 91.1 °F 64.4 °F 43% 29.85 in 10.0 mi SW 26.5 mph 33.4 mph N/A   Partly Cloudy
3:35 PM 89.6 °F 92.2 °F 66.2 °F 46% 29.83 in 10.0 mi SSW 23.0 mph - N/A   Scattered Clouds
3:55 PM 89.6 °F 92.2 °F 66.2 °F 46% 29.82 in 10.0 mi SSW 26.5 mph 33.4 mph N/A   Mostly Cloudy
4:15 PM 89.6 °F 92.2 °F 66.2 °F 46% 29.82 in 10.0 mi SSW 27.6 mph 32.2 mph N/A   Mostly Cloudy
4:35 PM 87.8 °F 89.4 °F 64.4 °F 46% 29.83 in 10.0 mi SSW 29.9 mph 39.1 mph N/A Thunderstorm Mostly Cloudy
4:55 PM 86.0 °F 88.2 °F 66.2 °F 51% 29.83 in 10.0 mi SSW 31.1 mph 39.1 mph N/A Thunderstorm Partly Cloudy
5:15 PM 75.2 °F - 59.0 °F 57% 29.87 in 10.0 mi WNW 19.6 mph 39.1 mph N/A Thunderstorm Mostly Cloudy
5:35 PM 68.0 °F - 64.4 °F 88% 29.92 in 1.5 mi West 13.8 mph 20.7 mph 0.07 in Rain Rain
5:55 PM 68.0 °F - 64.4 °F 88% 29.88 in 1.8 mi WSW 17.3 mph - 0.13 in Rain , Thunderstorm Thunderstorms and Rain
6:15 PM 68.0 °F - 64.4 °F 88% 29.89 in 5.0 mi SSW 17.3 mph - N/A Rain , Thunderstorm Light Thunderstorms and Rain
6:35 PM 68.0 °F - 64.4 °F 88% 29.90 in 10.0 mi SSW 11.5 mph - N/A Thunderstorm Overcast
6:55 PM 68.0 °F - 64.4 °F 88% 29.93 in 10.0 mi SSW 16.1 mph - N/A Rain Light Rain
7:15 PM 66.2 °F - 64.4 °F 94% 29.94 in 7.0 mi South 13.8 mph - N/A Rain Light Rain
7:35 PM 66.2 °F - 64.4 °F 94% 29.94 in 7.0 mi South 13.8 mph - 0.01 in Rain Light Rain
7:55 PM 66.2 °F - 64.4 °F 94% 29.94 in 6.0 mi SSW 5.8 mph - 0.02 in Rain Light Rain
8:15 PM 66.2 °F - 64.4 °F 94% 29.94 in 10.0 mi SSW 8.1 mph - N/A Rain Light Rain
8:35 PM 66.2 °F - 66.2 °F 100% 29.96 in 10.0 mi SSW 5.8 mph - N/A   Overcast
8:55 PM 66.2 °F - 66.2 °F 100% 29.96 in 9.0 mi Calm Calm - N/A Rain Light Rain
9:15 PM 66.2 °F - 66.2 °F 100% 29.98 in 8.0 mi South 6.9 mph - N/A Rain Light Rain
9:35 PM 68.0 °F - 66.2 °F 94% 29.99 in 9.0 mi SSW 3.5 mph - N/A Rain Light Rain
9:55 PM 68.0 °F - 66.2 °F 94% 30.00 in 7.0 mi Calm Calm - 0.01 in Rain Light Rain
10:15 PM 66.2 °F - 66.2 °F 100% 29.99 in 5.0 mi ENE 5.8 mph - 0.01 in Rain Light Rain
10:35 PM 68.0 °F - 66.2 °F 94% 30.01 in 6.0 mi NNW 5.8 mph - 0.02 in Rain Light Rain
10:55 PM 66.2 °F - 66.2 °F 100% 30.01 in 5.0 mi NNE 6.9 mph - 0.05 in Rain Light Rain
11:15 PM 66.2 °F - 66.2 °F 100% 30.02 in 8.0 mi North 8.1 mph - N/A Rain Light Rain
11:35 PM 66.2 °F - 66.2 °F 100% 30.01 in 5.0 mi NE 5.8 mph - 0.01 in Rain Light Rain
11:55 PM 66.2 °F - 66.2 °F 100% 30.02 in 7.0 mi NW 8.1 mph - 0.02 in Rain Light Rain